New Roads False River Regiona, LA

5:01 PM CDT on July 19, 2019 (GMT -0500)
False River

Weather History for KHZR - May, 2019

Change the Weather History Date:

Monday, May 13, 2019

  Actual Average (KBTR) Record (KBTR)
Temperature  
Mean Temperature 69 °F -  
Max Temperature 78 °F 83 °F 101 °F (1922)
Min Temperature 60 °F 64 °F 46 °F (1960)
Cooling Degree Days 4    
Growing Degree Days 19 (Base 50)    
Moisture  
Dew Point 58 °F    
Average Humidity 72    
Maximum Humidity 100    
Minimum Humidity 39    
Precipitation  
Precipitation 0.00 in - - ()
Sea Level Pressure  
Sea Level Pressure 29.94 in    
Wind  
Wind Speed 4 mph (North)    
Max Wind Speed 13 mph    
Max Gust Speed -    
Visibility 10 miles    
Events      
Averages and records for this station are not official NWS values.
T = Trace of Precipitation, MM = Missing Value Source: NWS Daily Summary

Daily Weather History Graph

Daily Weather History Graph

Search for Another Location

Airport or City:

Astronomy

May. 13, 2019 Rise Set
Actual Time 6:12 AM CDT 7:52 PM CDT
Civil Twilight 5:46 AM CDT 8:18 PM CDT
Nautical Twilight 5:14 AM CDT 8:50 PM CDT
Astronomical Twilight 4:41 AM CDT 9:23 PM CDT
Moon 2:34 PM CDT (5/13) 2:59 AM CDT (5/13)
Length of Visible Light 14h 32m
Length of Day
13h 39m
Waxing Gibbous, 69% of the Moon is Illuminated
May 13
Waxing Gibbous
May 18
Full
May 26
Last Quarter
Jun 3
New
Jun 10
First Quarter

Hourly Weather History & Observations

Time (CDT) Temp. Dew Point Humidity Pressure Visibility Wind Dir Wind Speed Gust Speed Precip Events Conditions
12:15 AM 66.2 °F 64.4 °F 94% 29.90 in 10.0 mi Calm Calm - N/A   Clear
12:35 AM 66.2 °F 64.4 °F 94% 29.90 in 10.0 mi Calm Calm - N/A   Clear
12:55 AM 64.4 °F 64.4 °F 100% 29.91 in 10.0 mi Calm Calm - N/A   Clear
1:35 AM 64.4 °F 64.4 °F 100% 29.90 in 10.0 mi Calm Calm - N/A   Clear
2:16 AM 64.4 °F 62.6 °F 94% 29.90 in 10.0 mi NNW 3.5 mph - N/A   Clear
2:36 AM 64.4 °F 62.6 °F 94% 29.90 in 10.0 mi North 4.6 mph - N/A   Clear
3:15 AM 62.6 °F 60.8 °F 94% 29.90 in 10.0 mi North 3.5 mph - N/A   Clear
3:37 AM 62.6 °F 60.8 °F 94% 29.90 in 10.0 mi Calm Calm - N/A   Clear
5:15 AM 62.6 °F 60.8 °F 94% 29.91 in 10.0 mi NNW 3.5 mph - N/A   Clear
5:35 AM 60.8 °F 60.8 °F 100% - 10.0 mi North 3.5 mph - N/A   Clear
5:55 AM 60.8 °F 59.0 °F 94% 29.92 in 10.0 mi Calm Calm - N/A   Clear
6:15 AM 60.8 °F 57.2 °F 88% 29.93 in 10.0 mi North 3.5 mph - N/A   Clear
6:36 AM 60.8 °F 59.0 °F 94% 29.94 in 10.0 mi Calm Calm - N/A   Clear
7:15 AM 62.6 °F 60.8 °F 94% 29.95 in 10.0 mi Calm Calm - N/A   Clear
7:36 AM 64.4 °F 60.8 °F 88% 29.96 in 10.0 mi NNE 4.6 mph - N/A   Clear
7:56 AM 64.4 °F 60.8 °F 88% 29.96 in 10.0 mi NNE 3.5 mph - N/A   Clear
8:14 AM 66.2 °F 60.8 °F 83% - 10.0 mi NNE 4.6 mph - N/A   Clear
8:36 AM 66.2 °F 60.8 °F 83% 29.96 in 10.0 mi NNE 5.8 mph - N/A   Clear
8:54 AM 68.0 °F 60.8 °F 78% 29.96 in 10.0 mi NNE 6.9 mph - N/A   Clear
9:16 AM 69.8 °F 60.8 °F 73% 29.96 in 10.0 mi NNE 8.1 mph - N/A   Clear
9:36 AM 71.6 °F 60.8 °F 69% 29.97 in 10.0 mi NNE 6.9 mph - N/A   Clear
9:54 AM 71.6 °F 60.8 °F 69% 29.97 in 10.0 mi North 4.6 mph - N/A   Clear
10:15 AM 73.4 °F 60.8 °F 65% 29.97 in 10.0 mi NE 6.9 mph - N/A   Clear
10:34 AM 73.4 °F 60.8 °F 65% 29.97 in 10.0 mi NE 8.1 mph - N/A   Clear
10:56 AM 75.2 °F 59.0 °F 57% 29.98 in 10.0 mi NE 9.2 mph - N/A   Clear
11:36 AM 75.2 °F 60.8 °F 61% 29.97 in 10.0 mi NNE 9.2 mph - N/A   Clear
12:36 PM 77.0 °F 60.8 °F 57% 29.96 in 10.0 mi North 4.6 mph - N/A   Clear
12:56 PM 77.0 °F 60.8 °F 57% 29.95 in 10.0 mi NNE 4.6 mph - N/A   Clear
1:34 PM 78.8 °F 60.8 °F 54% 29.94 in 10.0 mi NNW 8.1 mph - N/A   Clear
1:54 PM 78.8 °F 59.0 °F 51% 29.94 in 10.0 mi NW 8.1 mph - N/A   Clear
2:35 PM 78.8 °F 57.2 °F 47% 29.93 in 10.0 mi NNW 9.2 mph - N/A   Clear
2:57 PM 78.8 °F 55.4 °F 44% 29.93 in 10.0 mi NW 12.7 mph - N/A   Clear
3:35 PM 78.8 °F 55.4 °F 44% 29.92 in 10.0 mi NNW 12.7 mph - N/A   Clear
4:34 PM 78.8 °F 51.8 °F 39% 29.92 in 10.0 mi NW 9.2 mph - N/A   Clear
5:36 PM 78.8 °F 53.6 °F 42% 29.91 in 10.0 mi NNW 9.2 mph - N/A   Clear
5:56 PM 78.8 °F 51.8 °F 39% 29.92 in 10.0 mi North 9.2 mph - N/A   Clear
6:14 PM 78.8 °F 51.8 °F 39% 29.92 in 10.0 mi North 10.4 mph - N/A   Clear
8:34 PM 68.0 °F 51.8 °F 56% 29.95 in 10.0 mi North 6.9 mph - N/A   Clear
8:56 PM 66.2 °F 51.8 °F 60% 29.96 in 10.0 mi NNE 5.8 mph - N/A   Clear
9:15 PM 66.2 °F 53.6 °F 64% 29.97 in 10.0 mi NNE 3.5 mph - N/A   Clear
9:36 PM 66.2 °F 53.6 °F 64% 29.97 in 10.0 mi Calm Calm - N/A   Clear
9:55 PM 66.2 °F 53.6 °F 64% 29.98 in 10.0 mi NE 3.5 mph - N/A   Clear
10:15 PM 64.4 °F 53.6 °F 68% 29.99 in 10.0 mi NE 3.5 mph - N/A   Clear
10:35 PM 64.4 °F 53.6 °F 68% 29.99 in 10.0 mi NE 4.6 mph - N/A   Clear
10:55 PM 64.4 °F 53.6 °F 68% 29.99 in 10.0 mi Calm Calm - N/A   Clear
11:14 PM 64.4 °F 53.6 °F 68% 29.99 in - NE 3.5 mph - N/A   Clear
11:35 PM 64.4 °F 53.6 °F 68% 30.00 in 10.0 mi Calm Calm - N/A   Clear